Dewpoint
-16 -15 -14 -13 -12 -11 -11 -10 -9 -11 -10 -11 -11 -12 -12 -12 -12 -12 -12 -11 -11 -8 -7 -6 -5 -5 -5 -4 -4 -3 -2 -2 -1 -1 -0 0 1 2
-16 -15 -14 -13 -12 -12 -11 -11 -11 -10 -11 -11 -12 -12 -12 -12 -12 -11 -12 -11 -11 -11 -9 -7 -6 -5 -5 -5 -4 -3 -3 -2 -2 -1 -0 0 1 1
-15 -15 -14 -12 -12 -11 -11 -11 -11 -9 -10 -10 -10 -10 -11 -11 -10 -10 -11 -10 -10 -11 -10 -7 -6 -5 -5 -5 -4 -4 -4 -3 -3 -2 -1 -0 1 2
-16 -14 -13 -12 -12 -11 -11 -11 -9 -9 -9 -9 -10 -10 -10 -9 -9 -8 -8 -9 -9 -10 -11 -7 -6 -5 -5 -4 -4 -3 -4 -4 -3 -3 -2 -1 -0 1
-14 -13 -12 -12 -12 -11 -11 -10 -9 -8 -9 -8 -9 -9 -9 -8 -8 -8 -8 -8 -10 -10 -10 -9 -6 -6 -5 -5 -4 -3 -4 -4 -4 -3 -3 -1 0 1
-13 -12 -12 -12 -11 -11 -9 -8 -8 -9 -8 -9 -8 -8 -8 -8 -7 -7 -7 -8 -8 -9 -8 -8 -7 -6 -5 -5 -4 -3 -4 -4 -4 -4 -2 -2 -1 -0
-13 -13 -12 -12 -11 -10 -8 -8 -8 -8 -9 -8 -8 -8 -7 -7 -7 -8 -7 -8 -7 -7 -7 -8 -7 -7 -8 -5 -4 -5 -5 -4 -4 -3 -2 -2 -1 -1
-13 -13 -12 -12 -11 -11 -9 -9 -8 -8 -8 -8 -7 -7 -8 -9 -8 -8 -8 -7 -7 -6 -7 -8 -7 -7 -7 -6 -5 -5 -5 -5 -4 -3 -2 -1 -1 -0
-12 -12 -11 -10 -11 -10 -9 -10 -9 -8 -8 -8 -9 -9 -9 -9 -9 -8 -7 -6 -7 -7 -7 -7 -7 -6 -7 -6 -6 -6 -6 -6 -5 -3 -1 -1 -0 -0
-12 -10 -9 -11 -11 -9 -8 -8 -8 -10 -11 -10 -10 -9 -10 -9 -8 -7 -7 -7 -8 -7 -7 -7 -7 -6 -6 -6 -6 -4 -4 -4 -4 -1 -1 -1 -0 1
-11 -11 -11 -11 -10 -8 -8 -9 -10 -11 -12 -11 -10 -9 -9 -9 -8 -8 -8 -8 -8 -8 -7 -7 -7 -6 -6 -6 -7 -6 -5 -5 -3 0 1 2 2 3
-10 -11 -12 -10 -9 -9 -9 -10 -11 -12 -10 -10 -12 -13 -11 -10 -9 -8 -8 -8 -8 -8 -8 -7 -7 -6 -6 -7 -7 -6 -6 -2 -2 -1 1 2 3 4
-9 -11 -12 -10 -9 -10 -10 -12 -11 -10 -11 -12 -12 -12 -11 -9 -9 -8 -8 -8 -8 -7 -8 -6 -7 -6 -6 -6 -7 -6 -6 -2 -1 -0 1 2 4 5
-11 -11 -12 -13 -14 -14 -13 -11 -11 -11 -13 -12 -11 -11 -11 -10 -9 -8 -8 -8 -8 -7 -7 -6 -6 -6 -6 -7 -7 -7 -3 -0 1 0 1 4 5 5
-11 -11 -14 -14 -14 -14 -14 -13 -13 -13 -12 -12 -11 -11 -11 -10 -8 -8 -8 -8 -7 -7 -6 -6 -7 -7 -8 -7 -6 -6 -5 2 2 1 3 3 5 4
-11 -14 -14 -15 -14 -14 -14 -14 -13 -13 -12 -11 -11 -11 -11 -9 -8 -9 -9 -7 -7 -7 -6 -7 -7 -7 -6 -5 -5 -4 -1 1 4 4 5 5 4 4
-14 -15 -15 -15 -14 -13 -13 -13 -13 -13 -12 -11 -11 -11 -10 -9 -9 -9 -8 -7 -7 -6 -6 -7 -7 -5 -5 -4 -5 -2 4 4 5 5 3 5 4 6
-15 -15 -14 -14 -13 -13 -12 -12 -13 -12 -12 -11 -11 -11 -10 -9 -8 -8 -7 -7 -7 -6 -7 -7 -7 -7 -5 -2 -4 1 4 5 5 6 4 5 6 6
-16 -14 -14 -13 -13 -13 -12 -12 -12 -12 -12 -12 -11 -10 -10 -9 -9 -8 -8 -7 -7 -7 -7 -7 -7 -7 -7 -7 -3 -1 3 5 5 6 6 5 5 6
-15 -14 -14 -13 -13 -12 -12 -12 -12 -12 -12 -11 -11 -11 -10 -9 -9 -8 -8 -7 -7 -7 -8 -7 -7 -7 -7 -6 -6 -2 1 4 6 5 6 5 3 4
-15 -14 -14 -14 -13 -12 -12 -12 -12 -12 -11 -11 -11 -10 -10 -10 -9 -8 -8 -7 -7 -7 -8 -8 -8 -6 -5 -4 -4 -2 -1 1 4 5 4 3 0 -1
-14 -14 -13 -13 -13 -12 -12 -12 -12 -12 -12 -11 -11 -10 -10 -10 -10 -8 -7 -7 -7 -7 -8 -8 -7 -6 -6 -5 -6 -4 -3 -2 -1 0 0 3 2 -2
-13 -13 -13 -13 -13 -13 -12 -12 -12 -11 -11 -11 -11 -10 -10 -10 -9 -8 -7 -7 -7 -7 -8 -7 -7 -7 -7 -6 -6 -5 -3 -2 -1 -1 -1 -1 -1 -0
Wind_Speed
18 20 21 20 22 24 25 27 29 29 37 33 35 43 40 39 35 36 34 33 31 32 33 35 36 36 37 37 38 38 37 35 34 36 38 38 37 35
19 21 21 21 24 24 26 27 29 31 31 44 48 45 43 41 39 40 38 39 35 34 35 36 37 37 37 37 36 38 39 39 40 40 38 39 40 40
19 21 22 22 24 24 25 28 30 30 38 50 47 48 48 44 45 45 43 44 42 37 38 36 36 37 38 38 38 37 38 42 43 42 42 42 41 42
20 21 23 23 24 25 26 29 30 30 36 47 50 51 49 45 49 47 48 47 47 40 39 37 38 38 36 37 36 38 41 41 42 43 43 43 45 44
20 21 22 24 26 26 27 30 32 34 37 43 53 50 50 47 48 48 46 47 45 43 45 44 38 36 37 39 38 40 39 41 44 46 48 46 44 46
19 21 22 24 26 27 28 31 34 37 39 40 45 49 46 45 42 44 47 48 51 52 49 46 40 38 42 39 39 40 36 38 42 45 45 50 53 53
19 21 22 23 24 24 27 30 34 37 39 40 42 46 43 43 43 44 43 51 54 50 47 42 47 52 48 45 47 47 41 36 36 38 40 43 46 50
21 22 22 23 26 28 26 28 27 32 37 42 45 44 50 46 45 44 46 49 52 40 43 63 49 53 53 51 53 49 46 41 37 37 38 42 44 46
20 21 23 26 28 30 30 31 34 32 31 37 48 45 47 47 46 47 45 43 49 54 49 55 52 52 54 54 52 49 44 42 41 38 39 38 42 45
18 20 25 28 30 28 32 35 39 43 40 38 38 43 43 44 45 44 44 48 52 50 41 49 52 54 54 52 50 30 21 26 31 38 39 35 39 41
19 23 26 28 29 27 32 40 43 44 39 39 38 37 37 37 34 34 38 44 48 48 46 44 51 57 53 49 36 40 41 24 18 30 31 33 34 36
25 26 26 25 26 30 33 36 42 42 43 43 43 36 31 30 27 28 33 36 43 53 48 52 54 44 39 44 39 47 40 14 16 21 30 28 37 37
25 27 26 26 29 30 29 32 33 37 39 39 38 35 33 32 33 33 35 36 43 48 50 46 53 53 40 45 46 46 30 21 16 27 32 30 36 38
22 23 27 29 29 29 29 27 29 31 34 35 37 38 36 36 36 34 33 36 39 44 45 44 51 52 44 45 44 46 32 11 15 25 30 28 29 22
19 23 26 27 27 29 30 31 31 33 33 34 38 38 35 35 35 33 36 39 42 43 44 43 45 46 38 33 40 44 33 7 11 22 27 27 21 25
22 24 25 26 27 29 31 34 35 34 31 35 38 38 35 35 36 35 39 42 46 48 47 44 37 35 32 29 31 30 17 2 17 22 25 23 15 20
21 24 26 29 32 35 36 36 37 36 35 36 36 37 35 34 36 36 40 41 41 44 53 43 37 29 22 21 22 17 3 15 26 28 26 21 14 32
21 24 27 30 32 35 37 38 38 38 36 35 37 37 37 35 36 38 38 39 42 44 49 41 37 34 22 10 26 12 20 25 26 31 34 33 25 35
24 27 29 30 32 34 36 38 40 39 37 35 38 38 34 31 34 38 40 39 43 46 43 37 29 31 32 23 22 19 24 31 27 33 36 30 44 48
27 28 30 31 32 34 35 37 39 40 39 38 35 36 33 29 32 36 38 38 39 43 40 33 25 22 23 22 16 18 24 40 34 39 46 48 48 62
26 29 31 32 31 32 34 35 37 39 38 36 35 37 34 27 30 34 33 35 38 39 32 26 19 10 12 14 26 26 30 34 42 46 51 61 61 57
24 26 30 32 32 33 35 36 37 39 39 37 34 36 34 29 27 31 29 35 37 33 23 16 10 12 20 26 26 31 29 35 43 47 46 66 79 58
24 27 30 33 34 35 35 35 35 37 38 37 35 35 35 31 24 25 24 31 33 29 18 14 12 20 26 29 33 37 41 42 44 49 35 36 55 74
Wind_Direction
307 306 305 308 306 307 309 307 308 306 309 308 315 327 328 328 331 329 326 324 318 309 302 297 293 290 287 285 282 277 285 277 273 269 264 259 255 252
306 304 305 307 307 308 308 305 303 299 290 310 316 321 326 325 327 326 326 325 321 314 313 300 295 292 288 285 282 278 279 277 272 268 263 256 250 249
304 304 307 309 308 309 308 309 309 306 295 308 314 319 320 323 324 325 326 325 322 317 317 303 298 296 292 287 283 277 275 274 270 264 258 253 247 246
305 306 310 310 309 309 310 310 305 310 309 308 313 317 317 318 320 319 320 322 319 320 317 305 301 297 292 289 283 281 279 273 266 260 254 251 244 241
309 312 314 312 311 313 310 306 309 310 309 309 308 312 310 308 314 314 313 315 323 325 322 316 305 300 296 294 291 291 284 272 265 259 251 237 238 236
311 315 315 314 313 312 314 311 309 310 309 305 301 304 306 312 309 308 306 311 317 323 318 315 307 303 305 304 301 301 291 277 262 257 249 243 234 233
315 316 317 315 316 310 302 305 307 307 310 307 304 304 304 308 304 306 302 307 309 314 309 310 308 318 318 316 312 310 300 281 263 252 246 241 238 238
317 319 317 315 315 315 308 309 308 307 307 306 305 304 304 304 305 304 302 307 307 310 309 309 311 312 316 315 312 302 291 283 267 252 237 238 234 230
320 321 319 319 319 316 324 325 320 316 303 303 301 304 302 305 307 306 301 302 302 302 309 304 311 304 313 312 312 305 285 271 258 241 228 231 228 227
322 320 320 322 327 326 321 317 309 307 311 311 303 305 305 306 303 301 301 302 302 302 306 299 308 304 309 307 318 322 325 299 253 229 228 224 224 221
325 326 327 328 325 322 318 315 315 315 321 318 312 307 303 304 298 300 304 309 304 305 313 306 309 305 309 311 316 311 318 303 248 224 223 223 214 210
327 328 332 329 327 325 321 319 315 323 325 316 318 318 317 320 316 307 315 313 310 309 314 313 311 310 310 310 306 317 326 291 239 223 224 211 210 197
323 328 334 334 326 325 324 320 322 317 315 321 327 326 325 323 319 322 322 318 314 306 319 319 309 308 302 308 309 317 321 309 240 222 212 214 192 198
329 335 337 335 333 333 331 328 323 322 329 335 334 332 327 329 328 325 323 321 321 319 326 331 310 307 305 305 303 319 329 284 216 193 196 183 197 206
339 339 339 339 340 342 343 341 341 340 340 335 335 333 329 330 333 331 330 332 331 331 336 328 318 313 309 297 304 314 322 53 180 167 175 192 187 179
340 344 341 341 345 348 348 350 350 347 341 338 337 334 332 335 335 336 336 338 335 337 340 336 332 326 317 307 315 314 320 250 159 166 172 167 152 234
341 342 344 352 352 353 353 353 351 350 345 343 341 338 335 337 337 338 340 335 333 331 335 344 344 337 313 312 337 348 38 157 163 157 162 154 142 143
352 349 356 356 356 354 353 352 352 350 346 343 343 340 337 338 338 340 339 338 339 334 341 345 349 355 2 15 22 40 135 162 158 161 162 152 153 148
6 2 358 356 354 354 352 351 349 350 347 345 344 339 336 337 340 341 340 343 343 337 344 348 354 358 357 346 37 67 123 156 160 154 158 153 145 147
8 4 358 355 354 351 351 350 350 349 349 344 340 341 340 337 340 338 340 344 341 341 347 349 357 8 10 0 21 47 122 141 157 146 143 142 137 146
1 360 358 355 351 350 349 349 350 349 346 344 342 342 340 333 332 334 340 347 342 346 351 355 352 3 65 78 72 93 102 129 146 150 151 141 133 128
357 358 357 355 352 349 349 348 348 348 346 344 339 341 341 334 324 334 343 347 344 349 357 8 21 59 73 94 77 91 99 113 126 133 141 158 153 137
357 356 355 353 352 349 348 347 346 345 345 342 337 336 341 336 330 338 341 345 345 352 6 34 62 78 78 89 93 97 106 107 118 118 108 133 139 142
Height
1481 1479 1477 1475 1472 1469 1465 1462 1455 1440 1431 1426 1422 1421 1416 1412 1408 1402 1396 1390 1386 1382 1377 1374 1369 1364 1361 1358 1355 1352 1348 1347 1347 1347 1348 1350 1353 1357
1477 1475 1472 1470 1467 1464 1461 1457 1452 1445 1431 1423 1416 1412 1409 1403 1399 1395 1389 1383 1378 1373 1367 1363 1358 1353 1349 1346 1344 1342 1339 1336 1335 1336 1338 1341 1345 1348
1472 1469 1467 1465 1461 1458 1456 1450 1445 1441 1429 1413 1412 1406 1400 1395 1389 1385 1380 1374 1367 1363 1357 1352 1347 1342 1338 1335 1332 1330 1328 1325 1323 1323 1325 1328 1332 1336
1468 1465 1462 1459 1456 1454 1449 1444 1440 1436 1428 1412 1406 1400 1396 1390 1383 1376 1371 1365 1358 1352 1347 1342 1338 1332 1327 1323 1319 1316 1313 1310 1309 1308 1310 1313 1317 1323
1462 1459 1457 1454 1451 1448 1444 1439 1435 1430 1423 1413 1398 1396 1388 1384 1375 1369 1363 1356 1349 1343 1336 1330 1326 1320 1315 1310 1305 1301 1296 1293 1292 1291 1293 1296 1302 1307
1457 1455 1453 1450 1446 1442 1438 1434 1429 1422 1416 1409 1398 1388 1384 1377 1371 1362 1352 1347 1337 1331 1324 1319 1314 1308 1303 1297 1291 1285 1279 1275 1273 1272 1275 1279 1284 1291
1453 1450 1449 1446 1441 1438 1434 1429 1423 1416 1409 1402 1393 1383 1376 1370 1364 1357 1348 1336 1325 1323 1313 1307 1303 1293 1286 1280 1273 1266 1261 1258 1256 1257 1259 1264 1269 1275
1448 1447 1444 1441 1437 1432 1428 1423 1419 1411 1404 1396 1387 1379 1369 1364 1356 1350 1342 1330 1312 1315 1306 1291 1292 1280 1273 1265 1256 1248 1244 1241 1240 1241 1244 1250 1256 1262
1445 1443 1439 1435 1431 1425 1419 1414 1410 1406 1401 1392 1380 1373 1361 1356 1349 1341 1335 1326 1314 1303 1300 1281 1278 1267 1260 1250 1241 1232 1225 1221 1222 1225 1230 1236 1243 1249
1443 1439 1434 1429 1424 1418 1413 1407 1401 1395 1389 1382 1374 1364 1357 1348 1344 1336 1328 1317 1304 1296 1294 1275 1267 1252 1243 1236 1229 1221 1213 1209 1206 1210 1217 1224 1231 1237
1438 1434 1428 1423 1418 1415 1408 1399 1391 1384 1380 1374 1364 1357 1350 1342 1337 1329 1322 1312 1294 1286 1283 1272 1256 1241 1231 1221 1215 1208 1202 1195 1195 1200 1207 1214 1220 1228
1432 1428 1424 1419 1416 1409 1402 1393 1383 1376 1368 1361 1354 1347 1340 1334 1330 1325 1317 1307 1296 1275 1274 1265 1246 1239 1220 1213 1206 1197 1190 1186 1190 1194 1198 1205 1211 1217
1428 1423 1419 1413 1410 1403 1398 1390 1381 1374 1363 1354 1345 1339 1333 1328 1323 1317 1312 1305 1292 1279 1268 1260 1241 1229 1226 1205 1191 1188 1183 1180 1183 1186 1190 1194 1203 1210
1422 1418 1413 1408 1403 1398 1392 1385 1377 1370 1358 1349 1342 1334 1327 1321 1316 1311 1305 1297 1289 1276 1261 1253 1236 1223 1217 1204 1191 1177 1172 1167 1173 1181 1187 1191 1195 1190
1418 1415 1410 1404 1399 1393 1387 1381 1372 1362 1354 1347 1339 1331 1325 1318 1311 1305 1298 1289 1279 1268 1257 1246 1233 1211 1209 1200 1190 1177 1171 1170 1170 1179 1182 1188 1191 1192
1415 1410 1407 1402 1397 1390 1381 1374 1367 1359 1353 1346 1337 1329 1322 1314 1308 1302 1293 1283 1272 1258 1251 1242 1226 1209 1199 1192 1186 1175 1171 1173 1179 1177 1182 1191 1191 1198
1412 1408 1404 1397 1390 1383 1377 1370 1364 1356 1350 1343 1335 1327 1320 1313 1305 1299 1290 1281 1272 1257 1243 1233 1222 1210 1199 1189 1184 1179 1166 1174 1182 1185 1187 1190 1199 1199
1410 1407 1401 1395 1388 1381 1375 1367 1361 1354 1348 1341 1334 1326 1319 1312 1303 1297 1290 1282 1270 1258 1245 1233 1220 1207 1199 1195 1182 1175 1177 1178 1187 1192 1197 1199 1207 1210
1408 1405 1399 1393 1387 1380 1374 1367 1358 1352 1346 1339 1332 1325 1318 1311 1304 1297 1289 1280 1270 1260 1248 1236 1228 1219 1208 1203 1194 1187 1185 1184 1189 1194 1201 1207 1211 1221
1406 1403 1398 1392 1385 1379 1373 1366 1358 1351 1344 1338 1331 1324 1317 1311 1304 1298 1290 1281 1273 1262 1250 1239 1232 1228 1221 1213 1204 1198 1192 1193 1194 1199 1205 1215 1225 1232
1405 1402 1396 1390 1385 1378 1372 1364 1357 1349 1344 1337 1329 1323 1317 1311 1305 1300 1292 1284 1276 1266 1255 1244 1236 1233 1229 1219 1213 1209 1206 1205 1206 1206 1210 1219 1232 1242
1403 1398 1395 1389 1383 1377 1369 1361 1354 1348 1342 1336 1329 1323 1316 1310 1304 1299 1293 1286 1278 1270 1262 1251 1243 1235 1230 1226 1223 1220 1220 1219 1218 1219 1224 1221 1224 1242
1402 1398 1392 1387 1380 1374 1366 1359 1353 1347 1341 1335 1328 1322 1316 1308 1304 1301 1296 1289 1281 1272 1268 1259 1250 1243 1237 1235 1233 1230 1229 1224 1225 1229 1242 1248 1247 1250